Vertical_Velocity
-3 3 1 1 1 1 2 2 2 1 -1 -1 -1 -1 -1 -1 -0 -0 0 -1 -1 -0
0 1 1 1 0 0 2 1 1 1 -0 -0 -1 -0 -0 -0 -1 -1 -1 -1 -2 -1
-2 0 2 2 1 -0 1 2 1 1 0 -2 -2 -2 -2 -1 -3 -1 -2 -1 -0 -0
-7 4 1 1 0 -0 1 1 -1 -1 -2 -2 -1 -0 1 0 -1 -0 -1 -3 -0 -1
5 4 1 2 2 -1 -2 1 1 -0 0 1 -1 -1 -0 0 0 1 -0 -2 -2 0
4 2 2 2 4 4 1 -1 -0 1 0 -1 -1 -0 -0 -1 -1 -0 -0 0 -0 1
5 2 2 -3 -5 -5 -5 -1 -2 -2 -2 -2 -2 -1 -1 -2 -1 1 3 2 1 1
1 -2 -2 -2 -1 -0 -0 -0 -0 -1 -1 0 -1 -1 -1 -1 -0 1 1 -1 -0 0
-2 0 -1 0 2 1 1 2 1 -0 -0 -0 1 1 1 -0 2 0 1 4 -1 -1
-0 -1 1 0 -1 -0 -1 -0 0 0 0 1 -2 -1 -1 -3 2 2 -1 -0 -1 2
0 1 0 -0 -1 0 1 -2 -2 -0 -1 2 -1 -0 0 -1 1 1 1 1 3 -1
-3 -5 -2 -1 1 1 2 3 4 4 6 2 4 -1 -1 1 2 1 3 0 1 -4
-2 -1 1 1 -0 0 0 -2 0 -1 -1 1 4 0 0 -1 -3 -3 -4 10 4 7
3 2 1 -1 -2 -3 -1 1 1 -3 5 1 -3 4 3 2 -5 -8 -12 -4 1 9
Height
3125 3123 3122 3121 3120 3119 3118 3117 3116 3114 3113 3112 3110 3108 3105 3102 3099 3097 3095 3093 3091 3089
3116 3115 3113 3113 3113 3112 3111 3110 3109 3108 3106 3105 3103 3101 3098 3095 3093 3091 3089 3086 3084 3082
3108 3108 3107 3106 3106 3105 3105 3104 3103 3101 3099 3097 3095 3093 3091 3088 3086 3084 3081 3078 3075 3073
3102 3101 3100 3100 3099 3099 3099 3098 3096 3095 3092 3089 3087 3085 3083 3080 3078 3076 3073 3070 3067 3065
3096 3096 3096 3095 3095 3094 3093 3091 3089 3086 3083 3081 3079 3077 3075 3072 3069 3067 3064 3061 3059 3057
3091 3090 3089 3088 3087 3086 3084 3082 3080 3077 3075 3073 3071 3068 3065 3063 3060 3057 3054 3052 3050 3048
3085 3084 3083 3081 3080 3078 3077 3074 3072 3070 3067 3065 3062 3059 3056 3053 3051 3049 3046 3043 3041 3039
3079 3078 3076 3075 3073 3071 3069 3066 3064 3061 3057 3055 3051 3048 3046 3044 3042 3040 3038 3035 3033 3031
3072 3071 3069 3067 3065 3062 3060 3057 3054 3050 3048 3045 3042 3039 3037 3035 3034 3031 3029 3027 3024 3022
3065 3062 3060 3058 3055 3053 3050 3047 3045 3041 3039 3037 3034 3032 3029 3028 3026 3023 3022 3019 3015 3013
3055 3053 3050 3048 3045 3043 3041 3038 3037 3034 3032 3030 3028 3025 3022 3020 3018 3015 3013 3010 3006 3002
3046 3044 3043 3041 3038 3036 3034 3031 3029 3027 3024 3022 3021 3017 3015 3012 3008 3006 3003 3000 2997 2992
3037 3036 3033 3032 3030 3027 3025 3024 3022 3020 3018 3015 3012 3010 3007 3002 2998 2996 2993 2990 2986 2981
3028 3027 3025 3023 3021 3020 3018 3016 3014 3012 3011 3007 3003 3001 2996 2991 2986 2982 2980 2976 2973 2968